GFSCGP_con_mucape_336.txt.gz
CAPE
0 21 26 129 223 96 74 11 64 57 154 18 189 524 1051 604 432 477 457 812 231 329 274 98 0 0 0 0 0 0 0 0 8 0 0 14 4 42 55 43 25 18 9 6
0 0 0 0 0 0 6 10 4 74 215 35 332 180 975 765 516 319 447 386 311 354 499 201 18 0 0 0 0 0 0 0 0 15 27 8 27 42 40 51 50 28 16 17
0 0 0 0 0 0 0 14 9 25 6 136 303 252 468 610 572 336 304 461 243 297 606 522 132 227 75 150 0 0 0 0 0 0 24 10 184 130 38 40 19 47 17 4
0 0 0 0 26 0 32 0 34 111 203 17 130 161 764 665 448 415 423 389 379 358 502 619 301 235 190 131 0 0 0 0 0 0 20 21 33 26 66 38 38 76 27 22
1 8 0 10 1 12 2 1 37 63 277 93 8 98 892 880 785 732 524 407 241 252 328 443 233 256 138 28 0 0 0 0 0 0 0 7 3 3 33 18 75 108 109 28
0 0 0 0 10 0 0 28 100 98 169 65 28 100 421 551 191 14 692 461 252 192 216 392 217 222 128 3 0 0 0 0 0 0 3 5 12 3 11 43 45 22 64 55
0 0 0 12 6 32 44 311 212 260 293 167 138 96 298 14 0 0 70 426 248 127 250 325 224 166 56 61 0 0 0 0 0 0 1 1 4 11 67 42 14 34 35 54
6 1 25 25 30 19 32 56 129 48 57 146 99 38 67 61 84 61 53 112 319 199 167 386 299 328 272 128 50 0 0 0 0 0 0 2 0 7 38 31 1 28 43 52
13 7 40 14 40 4 69 181 123 216 181 186 40 42 92 144 122 123 59 81 268 444 447 548 379 322 316 228 248 2 0 0 0 0 0 2 10 2 17 8 27 33 47 22
22 36 7 7 13 7 19 32 125 90 67 100 73 119 83 217 56 141 183 229 184 487 392 370 343 431 267 314 273 54 0 0 0 0 0 5 5 12 15 41 40 37 48 52
1 142 75 45 42 89 0 8 292 101 60 127 43 151 176 437 262 308 200 339 388 382 417 415 693 395 305 276 43 17 0 0 0 0 0 0 0 5 18 29 45 38 52 60
5 147 217 61 59 3 7 176 241 160 214 199 304 155 102 409 239 24 131 341 273 326 425 502 543 409 363 244 104 44 12 0 4 2 0 0 0 4 23 76 44 68 49 71
261 360 81 54 107 52 3 138 110 102 68 55 88 275 82 382 174 78 144 130 139 197 301 282 461 382 419 451 443 65 0 9 19 14 6 0 21 75 138 158 156 56 63 52
215 947 307 60 162 58 47 174 66 201 214 166 107 129 614 207 126 20 12 191 132 268 449 435 387 430 411 521 452 294 60 44 17 12 3 0 50 116 164 191 174 91 60 64
56 52 11 10 9 62 40 123 151 109 276 293 67 42 357 203 65 16 40 315 167 352 302 465 581 597 410 530 580 439 171 63 0 1 0 0 49 68 96 138 150 122 110 41
1241 312 29 120 36 45 65 53 94 57 42 1 7 109 198 142 189 88 172 142 241 174 494 600 413 906 794 626 505 527 297 79 16 0 0 0 3 0 18 165 147 183 170 186
1151 849 913 336 57 53 76 18 41 27 17 40 225 318 550 493 333 277 133 111 33 221 275 496 815 1292 1574 1102 780 589 395 263 54 0 0 0 15 11 90 113 173 250 413 579
1614 1653 690 292 391 54 56 88 47 34 93 100 183 299 473 638 344 253 274 111 6 36 441 797 1283 1381 1474 1109 815 665 233 227 30 3 0 0 0 0 62 240 336 619 733 568
1011 1241 397 534 177 92 117 104 105 57 238 644 531 404 331 533 748 227 88 24 59 72 413 755 1019 1375 1450 880 709 488 172 9 0 0 0 0 0 74 167 327 603 1000 860 581
314 1622 794 369 248 306 927 201 85 170 252 498 118 314 441 351 375 207 194 302 332 345 603 713 893 950 1296 1014 870 457 93 0 0 0 1 1 28 250 399 739 796 699 598 456
515 85 815 191 187 236 262 38 5 331 896 736 420 594 654 955 701 978 580 562 429 415 371 507 793 983 1282 984 563 99 12 38 11 8 1 0 20 707 922 683 507 528 505 440
653 871 574 50 7 478 131 75 490 690 2243 745 742 1191 718 1222 451 315 618 626 437 254 34 58 598 934 969 558 308 28 126 259 181 180 212 98 627 683 145 889 908 893 797 647
312 818 1886 1042 923 1063 239 355 461 2230 1138 1041 1480 942 742 491 356 376 631 990 681 234 41 10 679 740 681 358 122 301 475 615 832 977 1160 1174 1330 1285 1254 1317 1240 990 717 529
274 522 498 1048 1074 1149 609 539 916 1023 1321 1312 961 630 456 440 247 532 789 1294 1110 506 302 43 14 669 481 303 411 344 785 1312 1134 1238 1507 1674 1645 1086 1199 679 826 659 589 642
208 371 102 543 208 1117 958 425 117 1649 1286 809 421 345 350 548 730 780 1100 1221 1072 866 848 552 523 778 739 492 464 516 1004 1148 1265 1559 1384 1394 1289 1102 914 923 569 257 489 72
432 1174 436 1033 1392 2013 1187 450 172 1050 421 309 393 120 296 170 409 441 1759 1661 1450 1385 1322 983 1083 984 647 672 351 174 153 149 226 145 47 3 0 0 0 0 0 0 0 7

GFSCGP_con_mucape_339.txt.gz
CAPE
0 0 0 57 91 77 104 80 136 147 115 7 53 667 733 651 415 382 333 283 282 203 127 107 58 1 0 0 0 0 0 0 0 0 0 0 0 0 0 0 0 0 0 0
0 0 0 23 84 74 4 3 13 43 189 13 55 233 730 555 395 258 332 289 440 264 125 86 60 0 0 0 0 0 0 0 0 0 0 0 0 2 1 0 0 0 0 0
0 0 0 12 43 17 11 10 33 103 103 34 4 0 618 640 462 257 283 373 433 284 157 151 146 87 0 0 0 0 0 0 0 0 0 0 0 1 0 0 0 0 0 0
0 0 2 40 15 2 10 8 29 5 59 0 6 1 627 562 457 362 208 291 223 237 301 268 246 154 59 0 0 0 0 0 0 0 0 0 0 0 0 0 0 7 0 0
0 0 2 1 45 51 16 24 0 22 16 8 0 0 114 304 514 372 330 268 244 284 338 356 353 208 150 77 1 0 0 0 0 0 0 0 0 0 0 0 0 1 1 0
0 0 0 0 3 0 23 113 161 90 57 14 6 12 53 110 408 474 375 379 307 301 382 395 303 224 141 170 54 0 0 0 0 0 0 0 0 0 0 0 0 0 3 0
0 0 0 1 22 0 3 34 75 31 133 148 24 24 7 2 0 0 396 463 303 201 330 422 240 143 167 219 210 133 0 0 0 0 0 0 0 0 0 0 0 0 0 0
0 0 20 11 30 14 19 61 53 29 94 49 47 10 1 13 8 16 29 549 249 129 261 313 261 183 229 166 267 134 0 0 0 0 0 0 0 0 0 0 0 0 0 0
0 0 3 1 0 13 45 27 63 91 36 46 99 72 19 39 43 1 12 17 216 121 169 195 270 308 329 306 154 129 0 0 0 0 0 0 0 0 0 0 0 0 0 0
0 39 17 29 19 35 20 15 0 80 8 4 50 17 49 27 33 27 63 76 54 172 208 269 401 452 397 269 156 141 0 0 0 0 2 0 0 0 0 0 0 0 0 0
1 38 67 7 26 13 20 20 4 49 40 66 0 0 29 3 14 17 0 77 84 108 220 320 424 433 455 423 305 80 0 0 0 0 1 2 0 0 0 0 0 0 0 0
22 24 24 55 31 12 31 11 81 270 123 14 1 0 247 87 42 17 32 43 111 44 26 198 285 416 539 491 333 120 33 0 0 0 11 1 0 0 0 0 0 0 0 0
175 400 224 28 64 30 10 16 28 129 89 2 1 1 68 129 66 70 24 100 48 14 28 185 424 688 682 492 305 178 119 64 2 0 0 0 0 0 0 0 0 0 0 0
298 171 107 48 29 5 2 8 54 78 56 15 50 27 294 237 105 43 74 90 39 1 7 295 212 486 503 359 222 189 218 158 63 9 0 0 0 0 0 0 0 0 0 0
92 28 137 25 9 18 22 31 53 125 181 27 64 296 300 342 245 119 112 75 2 0 3 0 138 273 339 269 298 314 306 226 75 0 0 0 0 0 0 0 0 0 0 0
241 96 223 184 53 141 28 47 41 36 27 53 326 364 286 272 223 177 111 64 23 4 79 218 275 268 266 363 249 373 378 320 161 0 0 0 0 0 0 0 0 0 0 0
1250 519 878 489 318 137 43 27 93 35 63 133 284 470 312 291 326 233 168 38 6 106 723 794 571 466 451 362 405 397 349 250 70 0 0 0 0 0 0 0 0 0 1 10
793 1200 671 369 157 22 69 8 0 229 371 322 346 495 476 465 303 196 84 6 11 229 647 619 637 524 519 449 354 257 184 109 30 0 0 0 0 0 0 0 0 0 18 61
290 438 105 115 139 141 233 98 158 45 472 309 202 502 611 601 308 219 123 23 109 192 410 687 586 531 462 318 197 183 145 63 0 0 0 0 0 0 0 1 5 32 121 204
1006 531 582 295 226 102 231 271 66 28 3 305 199 485 819 468 319 220 256 205 242 303 487 471 493 366 184 154 158 83 8 0 0 0 0 0 0 0 0 0 35 65 116 143
465 230 90 23 0 95 182 113 106 118 33 29 100 528 645 442 409 276 359 296 187 169 287 449 507 306 138 41 1 0 9 13 2 0 0 0 3 32 38 102 106 168 218 366
302 553 419 144 125 84 213 120 80 119 330 370 702 777 657 537 289 404 378 301 271 289 164 251 187 69 0 0 0 12 27 262 151 76 78 201 393 363 316 335 362 377 358 279
144 318 292 231 128 183 491 236 450 459 994 1049 550 620 510 292 212 510 434 327 267 316 279 204 119 17 0 0 0 8 0 232 356 337 606 601 494 486 461 325 220 148 124 92
105 231 290 5 272 812 416 418 322 217 341 373 619 365 253 229 386 633 886 610 364 315 296 224 79 11 0 18 32 90 104 194 246 277 243 268 207 131 0 0 0 0 0 0
156 75 19 124 456 552 254 339 204 343 207 824 417 263 211 243 900 828 841 906 548 402 357 262 189 175 189 101 85 54 76 20 3 0 0 0 0 0 0 0 0 0 0 0
215 427 303 566 362 357 42 88 22 678 718 337 123 163 305 1040 919 820 716 564 458 338 304 257 295 204 121 44 14 0 0 0 0 0 0 0 0 0 0 0 0 0 0 0

GFSCGP_con_mucape_342.txt.gz
CAPE
0 0 0 0 3 14 32 41 7 27 55 234 158 151 398 510 599 569 346 331 397 319 314 271 161 77 0 0 0 0 0 0 0 0 0 0 0 0 0 0 0 0 0 0
0 0 0 0 3 50 55 29 37 41 40 79 0 86 255 487 714 569 581 436 444 351 408 328 208 128 93 0 0 0 0 0 0 0 0 0 0 0 0 0 0 0 0 0
0 0 3 0 34 64 25 0 1 7 49 11 0 4 468 576 784 481 584 554 435 388 503 417 270 170 128 68 27 0 0 0 0 0 0 0 0 0 0 0 0 0 0 0
0 0 0 10 30 41 31 0 1 42 70 42 22 1 257 459 650 415 367 430 508 441 606 596 335 254 221 156 135 31 0 0 0 0 0 0 0 0 0 0 0 0 0 0
0 0 0 0 34 12 5 20 24 49 59 48 8 10 0 5 2 152 445 381 451 526 647 632 433 330 252 232 176 110 19 0 0 0 0 0 0 0 0 0 0 0 0 0
0 0 0 0 30 20 21 43 107 64 76 73 36 10 15 0 30 153 283 483 444 365 421 500 492 420 416 146 133 136 62 0 0 0 0 0 0 0 0 0 0 0 0 0
0 0 0 0 14 23 17 0 0 0 5 49 49 33 0 0 0 0 37 75 331 345 510 564 579 526 444 256 106 95 23 0 0 0 0 0 0 0 0 0 0 0 0 0
0 0 0 6 8 1 0 13 7 1 0 0 88 34 17 14 5 19 38 5 300 450 576 641 564 569 456 332 123 131 0 0 0 0 0 0 0 0 0 0 0 0 0 0
0 0 0 13 6 0 2 8 0 0 0 0 13 9 37 42 21 20 7 12 0 220 497 522 620 651 442 225 223 150 5 0 0 0 0 6 0 0 0 0 0 0 0 0
0 0 0 26 21 10 25 25 7 21 0 0 1 0 20 16 59 23 19 2 37 120 178 318 421 539 337 183 276 148 35 0 0 4 0 0 0 0 0 0 0 0 0 0
0 0 0 10 55 51 58 55 9 11 0 13 1 0 71 38 66 28 9 35 47 120 142 210 213 85 94 105 177 128 86 51 88 28 7 3 0 0 0 0 0 0 0 0
0 0 5 42 33 35 25 33 14 20 56 96 4 0 154 96 74 49 45 58 117 217 153 114 64 4 134 84 108 140 92 109 79 73 71 31 0 0 0 0 0 0 0 0
6 48 16 48 58 49 35 22 34 42 33 34 5 0 142 183 167 123 64 19 19 22 65 63 17 145 186 136 170 127 106 132 138 91 60 2 0 0 0 0 0 0 0 0
3 14 0 0 7 11 15 59 36 35 17 9 2 1 124 219 212 151 101 78 0 5 15 6 120 137 166 170 303 109 182 205 198 111 33 0 0 0 0 0 0 0 0 0
0 0 0 4 7 96 61 20 30 26 9 6 0 66 104 188 288 206 68 15 2 5 2 47 89 96 233 273 286 201 201 206 161 90 25 0 0 0 0 0 0 1 0 0
25 0 11 14 193 150 54 20 21 9 1 13 91 218 280 310 290 204 44 0 0 1 306 409 311 190 277 360 292 203 188 199 132 56 0 0 0 0 0 0 0 0 0 0
362 175 294 221 112 96 42 12 157 195 213 251 291 287 311 317 231 158 39 0 93 198 339 268 313 305 331 391 185 221 187 135 93 30 0 0 0 0 0 0 0 0 0 1
396 667 540 310 189 1 111 84 278 403 401 228 307 221 146 297 159 162 35 2 294 287 284 327 313 273 267 255 248 190 158 109 69 4 1 0 0 0 0 0 0 0 0 0
4 4 98 87 19 4 79 122 137 59 233 244 353 186 381 164 113 180 67 11 171 464 403 362 332 323 329 249 171 136 115 77 12 8 0 0 0 0 0 0 0 0 0 58
251 191 54 144 95 10 113 171 116 148 103 63 81 330 5 58 136 127 87 141 347 439 352 304 302 272 171 133 124 23 0 0 0 0 0 0 2 3 34 52 65 148 203 118
197 341 233 197 82 1 98 122 147 171 125 425 120 238 421 184 323 184 238 209 478 498 378 276 186 131 120 34 0 8 148 196 123 179 205 169 184 213 194 145 124 40 0 0
35 182 186 92 76 28 89 165 181 370 487 530 367 199 298 316 288 376 349 337 320 337 260 248 280 159 12 13 0 0 66 170 193 169 133 61 53 69 48 10 0 0 0 0
75 18 35 59 110 349 462 374 254 254 186 75 88 9 2 166 252 344 389 424 338 284 193 131 216 292 118 67 54 24 60 74 99 95 44 0 0 0 0 0 0 0 0 0
24 199 238 92 397 427 281 263 199 171 213 4 9 4 142 139 350 471 446 394 326 228 141 109 187 199 173 34 38 43 28 11 0 0 0 0 0 0 0 0 0 0 0 0
137 102 106 225 203 331 331 198 111 122 62 0 155 545 202 344 499 609 553 465 325 248 177 131 94 125 53 50 18 0 0 0 0 0 0 0 0 0 0 0 0 0 0 0
166 132 96 62 417 506 207 31 34 203 138 175 469 397 440 401 375 416 428 380 264 211 137 50 118 114 63 0 0 0 0 0 0 0 0 0 0 0 0 0 0 0 0 0

GFSCGP_con_mucape_345.txt.gz
CAPE
0 0 0 0 0 0 0 14 11 38 11 120 116 150 134 451 476 419 534 357 269 201 320 302 260 232 172 16 12 0 0 0 0 0 0 0 0 0 0 0 0 0 0 0
0 0 0 0 0 0 0 21 40 35 31 50 96 45 221 232 466 437 580 402 410 372 349 295 266 333 262 134 64 24 0 0 0 0 0 0 0 0 0 0 0 0 0 0
0 0 0 1 0 9 15 7 29 19 14 30 6 9 366 357 414 509 666 625 648 602 555 476 329 297 260 144 107 60 0 0 0 0 0 0 0 0 0 0 0 0 0 0
0 0 0 0 0 10 18 6 16 19 32 23 24 7 10 192 518 657 743 630 622 700 705 673 555 436 379 217 65 59 5 0 0 0 0 0 0 0 0 0 0 0 0 0
0 0 0 0 0 3 22 20 10 54 54 30 7 14 45 7 9 167 570 741 538 582 538 565 631 528 539 244 52 32 9 0 0 0 0 0 0 0 0 0 0 0 0 0
0 0 0 0 0 7 10 74 72 83 62 1 37 15 0 0 9 17 69 115 42 232 555 510 544 588 552 349 113 15 4 0 0 0 0 0 0 0 0 0 0 0 0 0
0 0 0 0 5 0 1 0 0 0 5 0 20 15 0 0 0 16 0 8 2 111 271 528 548 562 493 322 95 69 30 1 0 0 0 0 4 2 0 0 0 0 0 0
0 0 0 0 5 15 19 2 7 1 0 0 32 9 0 0 8 11 12 0 22 18 149 455 568 461 220 125 16 34 72 11 0 0 3 6 7 4 0 0 0 0 0 0
0 0 0 0 17 9 0 0 6 0 0 0 0 0 0 25 29 43 13 15 22 2 33 258 536 466 316 205 94 108 106 52 0 0 3 0 4 6 1 0 0 0 0 0
0 0 0 0 11 20 14 7 11 10 0 0 1 0 1 41 31 47 15 6 3 2 0 102 243 334 326 245 165 117 88 72 0 0 4 11 0 2 0 0 0 0 0 0
0 0 0 0 3 19 14 24 12 0 8 32 12 10 9 91 48 61 19 13 0 0 22 29 158 315 108 95 301 278 253 190 19 7 36 61 8 0 0 0 0 0 0 0
0 0 0 6 6 9 31 40 29 14 4 56 45 34 21 120 105 76 34 8 11 95 36 32 125 243 53 83 231 310 300 250 104 34 62 29 1 0 0 0 0 0 0 0
6 0 0 24 6 19 36 28 10 27 12 31 27 33 144 112 140 78 58 24 0 43 112 105 138 68 127 158 286 387 363 318 100 104 68 13 0 0 0 0 0 0 0 0
0 0 0 0 0 8 25 20 14 26 19 17 31 10 19 84 142 118 64 30 0 0 5 24 62 94 220 333 203 347 389 238 154 107 52 14 0 0 0 0 0 0 0 0
0 0 0 0 27 42 18 8 15 18 22 23 32 72 135 182 210 132 38 1 0 0 0 89 255 227 142 251 293 339 269 214 120 81 35 2 0 0 0 0 0 0 0 0
0 0 1 0 24 48 2 5 11 11 25 32 75 182 207 226 230 58 7 5 0 16 125 172 140 199 164 184 305 299 252 230 81 69 10 0 0 0 0 0 0 0 0 0
162 149 93 0 44 100 0 32 123 111 123 134 78 28 246 257 124 33 29 44 15 123 229 192 128 169 163 225 387 333 200 59 54 28 2 0 0 0 0 0 0 0 0 0
396 449 440 312 190 6 24 116 171 99 159 242 246 175 182 120 27 3 1 57 90 228 181 188 173 178 201 264 335 262 92 48 19 8 8 6 2 0 0 0 0 0 0 46
8 17 29 120 68 26 33 88 102 74 43 132 236 228 75 25 34 17 0 13 51 288 208 182 146 173 207 164 98 62 53 19 8 0 0 0 0 0 0 36 76 67 60 8
221 221 98 18 42 86 111 185 133 158 113 222 69 59 41 77 20 6 2 13 100 299 213 180 120 93 44 29 34 45 1 2 7 34 124 98 74 84 82 88 36 0 0 0
144 221 267 254 173 175 102 112 123 132 96 297 218 298 277 86 2 6 127 92 245 276 237 211 123 31 0 0 0 35 63 87 97 90 102 114 109 26 5 0 0 0 0 0
54 79 236 134 76 57 300 82 155 257 468 280 289 162 42 97 76 153 123 142 297 297 156 168 73 61 16 8 25 29 30 36 70 82 78 21 0 0 0 0 0 0 0 0
125 11 2 149 78 117 355 318 302 459 367 214 220 85 1 27 83 85 144 201 338 203 213 122 88 86 64 56 41 55 62 38 0 0 0 0 0 0 0 0 0 0 0 0
84 110 129 62 56 327 330 345 357 458 300 179 54 9 13 45 140 258 305 302 287 232 152 59 64 76 28 47 74 97 55 0 0 0 0 0 0 0 0 0 0 0 0 0
108 75 27 26 80 134 287 444 376 338 152 93 83 136 382 322 286 393 407 423 362 268 196 79 95 70 62 69 74 0 0 0 0 0 0 0 0 0 0 0 0 0 0 0
141 61 40 3 0 161 208 295 143 127 97 148 87 315 365 356 387 355 364 460 368 243 179 114 82 76 66 0 0 0 0 0 0 0 0 0 0 0 0 0 0 0 0 0